Time,TemperatureF,DewpointF,PressureIn,WindDirection,WindDirectionDegrees,WindSpeedMPH,WindSpeedGustMPH,Humidity,HourlyPrecipIn,Conditions,Clouds,dailyrainin,SoftwareType,DateUTC
2013-05-06 00:01:00,56.0,47.0,29.85,North,-999,0.0,0.0,71,0.00,,,0.00,,2013-05-06 07:01:00,
2013-05-06 00:11:00,56.0,47.0,29.85,North,-999,0.0,0.0,71,0.00,,,0.00,,2013-05-06 07:11:00,
2013-05-06 00:22:00,56.0,47.0,29.85,North,-999,0.0,0.0,71,0.00,,,0.00,,2013-05-06 07:22:00,
2013-05-06 00:31:00,56.0,46.0,29.85,North,-999,0.0,0.0,69,0.00,,,0.00,,2013-05-06 07:31:00,
2013-05-06 00:41:00,56.0,46.0,29.85,North,-999,0.0,0.0,69,0.00,,,0.00,,2013-05-06 07:41:00,
2013-05-06 00:52:00,55.0,47.0,29.86,North,-999,0.0,0.0,74,0.00,,,0.00,,2013-05-06 07:52:00,
2013-05-06 01:01:00,55.0,48.0,29.86,North,-999,0.0,0.0,77,0.00,,,0.00,,2013-05-06 08:01:00,
2013-05-06 01:11:00,55.0,48.0,29.86,North,-999,0.0,0.0,77,0.00,,,0.00,,2013-05-06 08:11:00,
2013-05-06 01:21:00,53.0,47.0,29.86,North,-999,0.0,0.0,79,0.00,,,0.00,,2013-05-06 08:21:00,
2013-05-06 01:31:00,54.0,49.0,29.86,North,-999,0.0,0.0,82,0.00,,,0.00,,2013-05-06 08:31:00,
2013-05-06 01:41:00,54.0,49.0,29.86,North,-999,0.0,0.0,82,0.00,,,0.00,,2013-05-06 08:41:00,
2013-05-06 01:52:00,54.0,48.0,29.86,North,-999,0.0,0.0,80,0.00,,,0.00,,2013-05-06 08:52:00,
2013-05-06 02:01:00,53.0,47.0,29.86,North,-999,0.0,0.0,79,0.00,,,0.00,,2013-05-06 09:01:00,
2013-05-06 02:11:00,53.0,47.0,29.86,North,-999,0.0,0.0,79,0.00,,,0.00,,2013-05-06 09:11:00,
2013-05-06 02:22:00,52.0,45.0,29.86,North,-999,0.0,0.0,77,0.00,,,0.00,,2013-05-06 09:22:00,
2013-05-06 02:32:00,52.0,46.0,29.86,North,-999,0.0,0.0,79,0.00,,,0.00,,2013-05-06 09:32:00,
2013-05-06 02:42:00,52.0,46.0,29.86,North,-999,0.0,0.0,79,0.00,,,0.00,,2013-05-06 09:42:00,
2013-05-06 02:53:00,51.0,45.0,29.85,North,-999,0.0,0.0,81,0.00,,,0.00,,2013-05-06 09:53:00,
2013-05-06 03:02:00,52.0,46.0,29.85,North,-999,0.0,0.0,79,0.00,,,0.00,,2013-05-06 10:02:00,
2013-05-06 03:12:00,52.0,46.0,29.85,North,-999,0.0,0.0,79,0.00,,,0.00,,2013-05-06 10:12:00,
2013-05-06 03:22:00,50.0,45.0,29.85,North,-999,0.0,0.0,84,0.00,,,0.00,,2013-05-06 10:22:00,
2013-05-06 03:32:00,51.0,44.0,29.85,North,-999,0.0,0.0,76,0.00,,,0.00,,2013-05-06 10:32:00,
2013-05-06 03:41:00,51.0,44.0,29.85,North,-999,0.0,0.0,76,0.00,,,0.00,,2013-05-06 10:41:00,
2013-05-06 03:52:00,52.0,44.0,29.85,North,-999,0.0,0.0,73,0.00,,,0.00,,2013-05-06 10:52:00,
2013-05-06 04:02:00,51.0,42.0,29.85,North,-999,0.0,0.0,72,0.00,,,0.00,,2013-05-06 11:02:00,
2013-05-06 04:11:00,51.0,42.0,29.85,North,-999,0.0,0.0,72,0.00,,,0.00,,2013-05-06 11:11:00,
2013-05-06 04:22:00,50.0,44.0,29.85,North,-999,0.0,0.0,81,0.00,,,0.00,,2013-05-06 11:22:00,
2013-05-06 04:31:00,51.0,44.0,29.85,North,-999,0.0,0.0,78,0.00,,,0.00,,2013-05-06 11:31:00,
2013-05-06 04:41:00,51.0,44.0,29.85,North,-999,0.0,0.0,78,0.00,,,0.00,,2013-05-06 11:41:00,
2013-05-06 04:52:00,53.0,42.0,29.86,North,-999,0.0,0.0,67,0.00,,,0.00,,2013-05-06 11:52:00,
2013-05-06 05:01:00,54.0,42.0,29.85,SE,135,0.0,1.0,63,0.00,,,0.00,,2013-05-06 12:01:00,
2013-05-06 05:12:00,54.0,42.0,29.85,SE,135,0.0,1.0,63,0.00,,,0.00,,2013-05-06 12:12:00,
2013-05-06 05:21:00,54.0,44.0,29.85,North,-999,0.0,0.0,68,0.00,,,0.00,,2013-05-06 12:21:00,
2013-05-06 05:31:00,52.0,43.0,29.85,North,-999,0.0,0.0,70,0.00,,,0.00,,2013-05-06 12:31:00,
2013-05-06 05:41:00,52.0,43.0,29.85,North,-999,0.0,0.0,70,0.00,,,0.00,,2013-05-06 12:41:00,
2013-05-06 05:52:00,52.0,43.0,29.85,North,-999,0.0,0.0,71,0.00,,,0.00,,2013-05-06 12:52:00,
2013-05-06 06:01:00,51.0,43.0,29.85,North,-999,0.0,0.0,73,0.00,,,0.00,,2013-05-06 13:01:00,
2013-05-06 06:11:00,51.0,43.0,29.85,North,-999,0.0,0.0,73,0.00,,,0.00,,2013-05-06 13:11:00,
2013-05-06 06:21:00,49.0,41.0,29.86,South,180,0.0,1.0,75,0.00,,,0.00,,2013-05-06 13:21:00,
2013-05-06 06:31:00,52.0,43.0,29.86,SE,135,0.0,1.0,70,0.00,,,0.00,,2013-05-06 13:31:00,
2013-05-06 06:42:00,52.0,43.0,29.86,SE,135,0.0,1.0,70,0.00,,,0.00,,2013-05-06 13:42:00,
2013-05-06 06:52:00,53.0,43.0,29.87,South,180,1.0,1.0,68,0.00,,,0.00,,2013-05-06 13:52:00,
2013-05-06 07:01:00,54.0,46.0,29.87,North,-999,0.0,0.0,73,0.00,,,0.00,,2013-05-06 14:01:00,
2013-05-06 07:11:00,54.0,46.0,29.87,North,-999,0.0,0.0,73,0.00,,,0.00,,2013-05-06 14:11:00,
2013-05-06 07:21:00,52.0,47.0,29.87,North,-999,0.0,0.0,82,0.00,,,0.00,,2013-05-06 14:21:00,
2013-05-06 07:32:00,52.0,46.0,29.87,North,-999,0.0,0.0,81,0.00,,,0.00,,2013-05-06 14:32:00,
2013-05-06 07:42:00,52.0,46.0,29.87,North,-999,0.0,0.0,81,0.00,,,0.00,,2013-05-06 14:42:00,
2013-05-06 07:51:00,54.0,48.0,29.87,North,-999,0.0,0.0,80,0.00,,,0.00,,2013-05-06 14:51:00,
2013-05-06 08:01:00,56.0,49.0,29.88,North,-999,0.0,0.0,78,0.00,,,0.00,,2013-05-06 15:01:00,
2013-05-06 08:11:00,56.0,49.0,29.88,North,-999,0.0,0.0,78,0.00,,,0.00,,2013-05-06 15:11:00,
2013-05-06 08:21:00,62.0,50.0,29.88,North,-999,0.0,0.0,64,0.00,,,0.00,,2013-05-06 15:21:00,
2013-05-06 08:33:00,64.0,47.0,29.88,North,-999,0.0,0.0,55,0.00,,,0.00,,2013-05-06 15:33:00,
2013-05-06 08:53:00,66.0,49.0,29.88,SE,135,0.0,1.0,54,0.00,,,0.00,,2013-05-06 15:53:00,
2013-05-06 09:02:00,68.0,49.0,29.88,East,90,0.0,1.0,50,0.00,,,0.00,,2013-05-06 16:02:00,
2013-05-06 09:22:00,69.0,48.0,29.88,ENE,67,0.0,1.0,48,0.00,,,0.00,,2013-05-06 16:22:00,
2013-05-06 09:32:00,70.0,48.0,29.87,NE,45,1.0,2.0,45,0.00,,,0.00,,2013-05-06 16:32:00,
2013-05-06 09:52:00,72.0,49.0,29.87,NE,45,0.0,2.0,44,0.00,,,0.00,,2013-05-06 16:52:00,
2013-05-06 10:02:00,72.0,44.0,29.87,NNE,22,1.0,2.0,37,0.00,,,0.00,,2013-05-06 17:02:00,
2013-05-06 10:22:00,73.0,47.0,29.87,NE,45,2.0,3.0,39,0.00,,,0.00,,2013-05-06 17:22:00,
2013-05-06 10:31:00,75.0,45.0,29.87,NE,45,1.0,3.0,35,0.00,,,0.00,,2013-05-06 17:31:00,
2013-05-06 10:52:00,75.0,48.0,29.87,NE,45,1.0,3.0,38,0.00,,,0.00,,2013-05-06 17:52:00,
2013-05-06 11:01:00,76.0,48.0,29.87,NE,45,1.0,2.0,37,0.00,,,0.00,,2013-05-06 18:01:00,
2013-05-06 11:11:00,76.0,48.0,29.87,NE,45,1.0,2.0,37,0.00,,,0.00,,2013-05-06 18:11:00,
2013-05-06 11:21:00,77.0,46.0,29.86,NE,45,1.0,4.0,34,0.00,,,0.00,,2013-05-06 18:21:00,
2013-05-06 11:31:00,78.0,52.0,29.86,NE,45,1.0,4.0,40,0.00,,,0.00,,2013-05-06 18:31:00,
2013-05-06 11:42:00,78.0,52.0,29.86,NE,45,1.0,4.0,40,0.00,,,0.00,,2013-05-06 18:42:00,
2013-05-06 11:52:00,79.0,54.0,29.86,NE,45,1.0,4.0,42,0.00,,,0.00,,2013-05-06 18:52:00,
2013-05-06 12:01:00,79.0,52.0,29.85,ENE,67,1.0,2.0,39,0.00,,,0.00,,2013-05-06 19:01:00,
2013-05-06 12:11:00,79.0,52.0,29.85,ENE,67,1.0,2.0,39,0.00,,,0.00,,2013-05-06 19:11:00,
2013-05-06 12:21:00,80.0,52.0,29.85,NE,45,1.0,2.0,38,0.00,,,0.00,,2013-05-06 19:21:00,
2013-05-06 12:32:00,80.0,52.0,29.85,WNW,292,1.0,4.0,38,0.00,,,0.00,,2013-05-06 19:32:00,
2013-05-06 12:41:00,80.0,52.0,29.85,WNW,292,1.0,4.0,38,0.00,,,0.00,,2013-05-06 19:41:00,
2013-05-06 12:52:00,80.0,53.0,29.85,NE,45,1.0,4.0,39,0.00,,,0.00,,2013-05-06 19:52:00,
2013-05-06 13:01:00,81.0,54.0,29.85,SE,135,1.0,4.0,40,0.00,,,0.00,,2013-05-06 20:01:00,
2013-05-06 13:11:00,81.0,54.0,29.85,SE,135,1.0,4.0,40,0.00,,,0.00,,2013-05-06 20:11:00,
2013-05-06 13:21:00,82.0,54.0,29.84,ENE,67,0.0,2.0,38,0.00,,,0.00,,2013-05-06 20:21:00,
2013-05-06 13:32:00,82.0,56.0,29.84,NE,45,0.0,2.0,41,0.00,,,0.00,,2013-05-06 20:32:00,
2013-05-06 13:41:00,82.0,56.0,29.84,NE,45,0.0,2.0,41,0.00,,,0.00,,2013-05-06 20:41:00,
2013-05-06 13:52:00,82.0,51.0,29.84,ENE,67,2.0,4.0,34,0.00,,,0.00,,2013-05-06 20:52:00,
2013-05-06 14:01:00,83.0,52.0,29.84,NE,45,1.0,4.0,35,0.00,,,0.00,,2013-05-06 21:01:00,
2013-05-06 14:11:00,83.0,52.0,29.84,NE,45,1.0,4.0,35,0.00,,,0.00,,2013-05-06 21:11:00,
2013-05-06 14:21:00,84.0,49.0,29.83,NNE,22,1.0,3.0,30,0.00,,,0.00,,2013-05-06 21:21:00,
2013-05-06 14:32:00,84.0,50.0,29.83,SW,225,1.0,3.0,31,0.00,,,0.00,,2013-05-06 21:32:00,
2013-05-06 14:42:00,84.0,50.0,29.83,SW,225,1.0,3.0,31,0.00,,,0.00,,2013-05-06 21:42:00,
2013-05-06 14:53:00,84.0,47.0,29.83,ENE,67,1.0,5.0,28,0.00,,,0.00,,2013-05-06 21:53:00,
2013-05-06 15:02:00,84.0,50.0,29.83,NNE,22,1.0,3.0,31,0.00,,,0.00,,2013-05-06 22:02:00,
2013-05-06 15:12:00,84.0,50.0,29.83,NNE,22,1.0,3.0,31,0.00,,,0.00,,2013-05-06 22:12:00,
2013-05-06 15:22:00,84.0,47.0,29.82,NNW,337,1.0,6.0,28,0.00,,,0.00,,2013-05-06 22:22:00,
2013-05-06 15:33:00,84.0,50.0,29.82,NE,45,1.0,3.0,31,0.00,,,0.00,,2013-05-06 22:33:00,
2013-05-06 15:45:00,84.0,50.0,29.82,NE,45,1.0,3.0,31,0.00,,,0.00,,2013-05-06 22:45:00,
2013-05-06 15:52:00,85.0,56.0,29.81,SW,225,1.0,4.0,37,0.00,,,0.00,,2013-05-06 22:52:00,
2013-05-06 16:02:00,84.0,52.0,29.81,NE,45,1.0,3.0,33,0.00,,,0.00,,2013-05-06 23:02:00,
2013-05-06 16:11:00,84.0,52.0,29.81,NE,45,1.0,3.0,33,0.00,,,0.00,,2013-05-06 23:11:00,
2013-05-06 16:22:00,84.0,51.0,29.81,NE,45,1.0,5.0,32,0.00,,,0.00,,2013-05-06 23:22:00,
2013-05-06 16:31:00,84.0,49.0,29.80,NNE,22,1.0,4.0,30,0.00,,,0.00,,2013-05-06 23:31:00,
2013-05-06 16:41:00,84.0,49.0,29.80,NNE,22,1.0,4.0,30,0.00,,,0.00,,2013-05-06 23:41:00,
2013-05-06 16:52:00,84.0,51.0,29.80,NE,45,0.0,2.0,32,0.00,,,0.00,,2013-05-06 23:52:00,
2013-05-06 17:01:00,84.0,52.0,29.80,SE,135,1.0,3.0,33,0.00,,,0.00,,2013-05-07 00:01:00,
2013-05-06 17:11:00,84.0,52.0,29.80,SE,135,1.0,3.0,33,0.00,,,0.00,,2013-05-07 00:11:00,
2013-05-06 17:21:00,84.0,52.0,29.79,WSW,247,0.0,3.0,33,0.00,,,0.00,,2013-05-07 00:21:00,
2013-05-06 17:31:00,84.0,50.0,29.79,SW,225,1.0,3.0,31,0.00,,,0.00,,2013-05-07 00:31:00,
2013-05-06 17:41:00,84.0,50.0,29.79,SW,225,1.0,3.0,31,0.00,,,0.00,,2013-05-07 00:41:00,
2013-05-06 17:52:00,83.0,54.0,29.79,West,270,0.0,2.0,37,0.00,,,0.00,,2013-05-07 00:52:00,
2013-05-06 18:01:00,82.0,56.0,29.79,NE,45,0.0,2.0,41,0.00,,,0.00,,2013-05-07 01:01:00,
2013-05-06 18:11:00,82.0,56.0,29.79,NE,45,0.0,2.0,41,0.00,,,0.00,,2013-05-07 01:11:00,
2013-05-06 18:21:00,80.0,54.0,29.79,ESE,112,0.0,1.0,41,0.00,,,0.00,,2013-05-07 01:21:00,
2013-05-06 18:31:00,78.0,52.0,29.79,WSW,247,0.0,1.0,41,0.00,,,0.00,,2013-05-07 01:31:00,
2013-05-06 18:41:00,78.0,52.0,29.79,WSW,247,0.0,1.0,41,0.00,,,0.00,,2013-05-07 01:41:00,
2013-05-06 18:52:00,76.0,51.0,29.79,NE,45,0.0,1.0,41,0.00,,,0.00,,2013-05-07 01:52:00,
2013-05-06 19:01:00,75.0,50.0,29.79,ESE,112,0.0,1.0,42,0.00,,,0.00,,2013-05-07 02:01:00,
2013-05-06 19:11:00,75.0,50.0,29.79,ESE,112,0.0,1.0,42,0.00,,,0.00,,2013-05-07 02:11:00,
2013-05-06 19:21:00,73.0,50.0,29.79,ENE,67,0.0,2.0,44,0.00,,,0.00,,2013-05-07 02:21:00,
2013-05-06 19:31:00,73.0,49.0,29.79,SW,225,0.0,1.0,43,0.00,,,0.00,,2013-05-07 02:31:00,
2013-05-06 19:41:00,73.0,49.0,29.79,SW,225,0.0,1.0,43,0.00,,,0.00,,2013-05-07 02:41:00,
2013-05-06 19:52:00,71.0,50.0,29.79,East,90,0.0,1.0,47,0.00,,,0.00,,2013-05-07 02:52:00,
2013-05-06 20:01:00,70.0,50.0,29.79,SE,135,0.0,1.0,49,0.00,,,0.00,,2013-05-07 03:01:00,
2013-05-06 20:11:00,70.0,50.0,29.79,SE,135,0.0,1.0,49,0.00,,,0.00,,2013-05-07 03:11:00,
2013-05-06 20:21:00,69.0,49.0,29.80,West,270,1.0,4.0,49,0.00,,,0.00,,2013-05-07 03:21:00,
2013-05-06 20:32:00,68.0,49.0,29.80,NW,315,0.0,3.0,50,0.00,,,0.00,,2013-05-07 03:32:00,
2013-05-06 20:42:00,68.0,49.0,29.80,NW,315,0.0,3.0,50,0.00,,,0.00,,2013-05-07 03:42:00,
2013-05-06 20:53:00,66.0,48.0,29.81,North,-999,0.0,0.0,53,0.00,,,0.00,,2013-05-07 03:53:00,
2013-05-06 21:02:00,65.0,48.0,29.81,SSW,202,0.0,1.0,54,0.00,,,0.00,,2013-05-07 04:02:00,
2013-05-06 21:12:00,65.0,48.0,29.81,SSW,202,0.0,1.0,54,0.00,,,0.00,,2013-05-07 04:12:00,
2013-05-06 21:23:00,64.0,47.0,29.82,SSW,202,0.0,1.0,54,0.00,,,0.00,,2013-05-07 04:23:00,
2013-05-06 21:32:00,63.0,47.0,29.82,North,-999,0.0,0.0,55,0.00,,,0.00,,2013-05-07 04:32:00,
2013-05-06 21:42:00,63.0,47.0,29.82,North,-999,0.0,0.0,55,0.00,,,0.00,,2013-05-07 04:42:00,
2013-05-06 21:53:00,63.0,46.0,29.82,SSW,202,0.0,1.0,53,0.00,,,0.00,,2013-05-07 04:53:00,
2013-05-06 22:02:00,62.0,47.0,29.83,North,-999,0.0,0.0,57,0.00,,,0.00,,2013-05-07 05:02:00,
2013-05-06 22:12:00,62.0,47.0,29.83,North,-999,0.0,0.0,57,0.00,,,0.00,,2013-05-07 05:12:00,
2013-05-06 22:22:00,61.0,46.0,29.83,North,-999,0.0,0.0,58,0.00,,,0.00,,2013-05-07 05:22:00,
2013-05-06 22:32:00,61.0,46.0,29.83,North,-999,0.0,0.0,58,0.00,,,0.00,,2013-05-07 05:32:00,
2013-05-06 22:42:00,61.0,46.0,29.83,North,-999,0.0,0.0,58,0.00,,,0.00,,2013-05-07 05:42:00,
2013-05-06 22:52:00,59.0,46.0,29.83,North,-999,0.0,0.0,62,0.00,,,0.00,,2013-05-07 05:52:00,
2013-05-06 23:02:00,59.0,46.0,29.83,North,-999,0.0,0.0,62,0.00,,,0.00,,2013-05-07 06:02:00,
2013-05-06 23:11:00,59.0,46.0,29.83,North,-999,0.0,0.0,62,0.00,,,0.00,,2013-05-07 06:11:00,
2013-05-06 23:21:00,58.0,47.0,29.84,North,-999,0.0,0.0,68,0.00,,,0.00,,2013-05-07 06:21:00,
2013-05-06 23:32:00,58.0,47.0,29.84,North,-999,0.0,0.0,67,0.00,,,0.00,,2013-05-07 06:32:00,
2013-05-06 23:41:00,58.0,47.0,29.84,North,-999,0.0,0.0,67,0.00,,,0.00,,2013-05-07 06:41:00,
2013-05-06 23:52:00,56.0,47.0,29.84,North,-999,0.0,0.0,72,0.00,,,0.00,,2013-05-07 06:52:00,